Year,Month,Day,Hour,Minute,Value (Times are PST for temperature in C)
2007,05,25,00,00,11.90
2007,05,25,00,01,11.90
2007,05,25,00,02,11.90
2007,05,25,00,03,11.90
2007,05,25,00,04,11.90
2007,05,25,00,05,11.90
2007,05,25,00,06,11.90
2007,05,25,00,07,11.90
2007,05,25,00,08,11.90
2007,05,25,00,09,11.90
2007,05,25,00,10,11.90
2007,05,25,00,11,11.90
2007,05,25,00,12,11.90
2007,05,25,00,13,11.90
2007,05,25,00,14,11.90
2007,05,25,00,15,12.00
2007,05,25,00,16,12.00
2007,05,25,00,17,12.00
2007,05,25,00,18,12.10
2007,05,25,00,19,12.10
2007,05,25,00,20,12.10
2007,05,25,00,21,12.10
2007,05,25,00,22,12.10
2007,05,25,00,23,12.10
2007,05,25,00,24,12.10
2007,05,25,00,25,12.10
2007,05,25,00,26,12.10
2007,05,25,00,27,12.10
2007,05,25,00,28,12.00
2007,05,25,00,29,12.00
2007,05,25,00,30,12.00
2007,05,25,00,31,12.00
2007,05,25,00,32,12.00
2007,05,25,00,33,12.00
2007,05,25,00,34,12.00
2007,05,25,00,35,12.00
2007,05,25,00,36,12.00
2007,05,25,00,37,12.00
2007,05,25,00,38,12.00
2007,05,25,00,39,12.00
2007,05,25,00,40,12.00
2007,05,25,00,41,12.00
2007,05,25,00,42,12.00
2007,05,25,00,43,11.90
2007,05,25,00,44,11.90
2007,05,25,00,45,11.90
2007,05,25,00,46,11.90
2007,05,25,00,47,11.90
2007,05,25,00,48,11.90
2007,05,25,00,49,11.90
2007,05,25,00,50,11.90
2007,05,25,00,51,11.90
2007,05,25,00,52,11.90
2007,05,25,00,53,11.90
2007,05,25,00,54,11.90
2007,05,25,00,55,11.90
2007,05,25,00,56,11.90
2007,05,25,00,57,11.80
2007,05,25,00,58,11.80
2007,05,25,00,59,11.80
2007,05,25,01,00,11.80
2007,05,25,01,01,11.80
2007,05,25,01,02,11.80
2007,05,25,01,03,11.70
2007,05,25,01,04,11.70
2007,05,25,01,05,11.70
2007,05,25,01,06,11.70
2007,05,25,01,07,11.70
2007,05,25,01,08,11.60
2007,05,25,01,09,11.60
2007,05,25,01,10,11.60
2007,05,25,01,11,11.60
2007,05,25,01,12,11.60
2007,05,25,01,13,11.50
2007,05,25,01,14,11.50
2007,05,25,01,15,11.50
2007,05,25,01,16,11.50
2007,05,25,01,17,11.40
2007,05,25,01,18,11.40
2007,05,25,01,19,11.40
2007,05,25,01,20,11.40
2007,05,25,01,21,11.30
2007,05,25,01,22,11.30
2007,05,25,01,23,11.30
2007,05,25,01,24,11.30
2007,05,25,01,25,11.20
2007,05,25,01,26,11.20
2007,05,25,01,27,11.20
2007,05,25,01,28,11.20
2007,05,25,01,29,11.20
2007,05,25,01,30,11.20
2007,05,25,01,31,11.10
2007,05,25,01,32,11.10
2007,05,25,01,33,11.10
2007,05,25,01,34,11.10
2007,05,25,01,35,11.00
2007,05,25,01,36,11.00
2007,05,25,01,37,11.00
2007,05,25,01,38,10.90
2007,05,25,01,39,10.90
2007,05,25,01,40,10.90
2007,05,25,01,41,10.90
2007,05,25,01,42,10.80
2007,05,25,01,43,10.80
2007,05,25,01,44,10.80
2007,05,25,01,45,10.80
2007,05,25,01,46,10.80
2007,05,25,01,47,10.70
2007,05,25,01,48,10.70
2007,05,25,01,49,10.70
2007,05,25,01,50,10.70
2007,05,25,01,51,10.60
2007,05,25,01,52,10.60
2007,05,25,01,53,10.60
2007,05,25,01,54,10.60
2007,05,25,01,55,10.50
2007,05,25,01,56,10.50
2007,05,25,01,57,10.50
2007,05,25,01,58,10.50
2007,05,25,01,59,10.40
2007,05,25,02,00,10.40
2007,05,25,02,01,10.40
2007,05,25,02,02,10.40
2007,05,25,02,03,10.40
2007,05,25,02,04,10.40
2007,05,25,02,05,10.40
2007,05,25,02,06,10.40
2007,05,25,02,07,10.40
2007,05,25,02,08,10.40
2007,05,25,02,09,10.40
2007,05,25,02,10,10.40
2007,05,25,02,11,10.40
2007,05,25,02,12,10.40
2007,05,25,02,13,10.40
2007,05,25,02,14,10.40
2007,05,25,02,15,10.30
2007,05,25,02,16,10.30
2007,05,25,02,17,10.30
2007,05,25,02,18,10.30
2007,05,25,02,19,10.30
2007,05,25,02,20,10.30
2007,05,25,02,21,10.30
2007,05,25,02,22,10.30
2007,05,25,02,23,10.30
2007,05,25,02,24,10.30
2007,05,25,02,25,10.30
2007,05,25,02,26,10.20
2007,05,25,02,27,10.20
2007,05,25,02,28,10.20
2007,05,25,02,29,10.20
2007,05,25,02,30,10.20
2007,05,25,02,31,10.20
2007,05,25,02,32,10.20
2007,05,25,02,33,10.20
2007,05,25,02,34,10.20
2007,05,25,02,35,10.20
2007,05,25,02,36,10.20
2007,05,25,02,37,10.20
2007,05,25,02,38,10.20
2007,05,25,02,39,10.20
2007,05,25,02,40,10.10
2007,05,25,02,41,10.10
2007,05,25,02,42,10.10
2007,05,25,02,43,10.10
2007,05,25,02,44,10.20
2007,05,25,02,45,10.20
2007,05,25,02,46,10.20
2007,05,25,02,47,10.30
2007,05,25,02,48,10.30
2007,05,25,02,49,10.30
2007,05,25,02,50,10.30
2007,05,25,02,51,10.30
2007,05,25,02,52,10.30
2007,05,25,02,53,10.30
2007,05,25,02,54,10.30
2007,05,25,02,55,10.30
2007,05,25,02,56,10.30
2007,05,25,02,57,10.30
2007,05,25,02,58,10.30
2007,05,25,02,59,10.30
2007,05,25,03,00,10.30
2007,05,25,03,01,10.30
2007,05,25,03,02,10.30
2007,05,25,03,03,10.30
2007,05,25,03,04,10.30
2007,05,25,03,05,10.30
2007,05,25,03,06,10.30
2007,05,25,03,07,10.30
2007,05,25,03,08,10.30
2007,05,25,03,09,10.30
2007,05,25,03,10,10.30
2007,05,25,03,11,10.30
2007,05,25,03,12,10.30
2007,05,25,03,13,10.30
2007,05,25,03,14,10.30
2007,05,25,03,15,10.20
2007,05,25,03,16,10.20
2007,05,25,03,17,10.20
2007,05,25,03,18,10.20
2007,05,25,03,19,10.20
2007,05,25,03,20,10.20
2007,05,25,03,21,10.20
2007,05,25,03,22,10.10
2007,05,25,03,23,10.10
2007,05,25,03,24,10.10
2007,05,25,03,25,10.10
2007,05,25,03,26,10.10
2007,05,25,03,27,10.10
2007,05,25,03,28,10.00
2007,05,25,03,29,10.00
2007,05,25,03,30,10.00
2007,05,25,03,31,10.00
2007,05,25,03,32,9.90
2007,05,25,03,33,9.90
2007,05,25,03,34,9.90
2007,05,25,03,35,9.90
2007,05,25,03,36,9.90
2007,05,25,03,37,9.90
2007,05,25,03,38,9.90
2007,05,25,03,39,9.80
2007,05,25,03,40,9.80
2007,05,25,03,41,9.80
2007,05,25,03,42,9.80
2007,05,25,03,43,9.80
2007,05,25,03,44,9.80
2007,05,25,03,45,9.80
2007,05,25,03,46,9.80
2007,05,25,03,47,9.70
2007,05,25,03,48,9.70
2007,05,25,03,49,9.70
2007,05,25,03,50,9.70
2007,05,25,03,51,9.70
2007,05,25,03,52,9.70
2007,05,25,03,53,9.60
2007,05,25,03,54,9.60
2007,05,25,03,55,9.60
2007,05,25,03,56,9.60
2007,05,25,03,57,9.60
2007,05,25,03,58,9.60
2007,05,25,03,59,9.60
2007,05,25,04,00,9.60
2007,05,25,04,01,9.60
2007,05,25,04,02,9.60
2007,05,25,04,03,9.60
2007,05,25,04,04,9.60
2007,05,25,04,05,9.60
2007,05,25,04,06,9.60
2007,05,25,04,07,9.60
2007,05,25,04,08,9.60
2007,05,25,04,09,9.50
2007,05,25,04,10,9.50
2007,05,25,04,11,9.50
2007,05,25,04,12,9.50
2007,05,25,04,13,9.40
2007,05,25,04,14,9.40
2007,05,25,04,15,9.40
2007,05,25,04,16,9.40
2007,05,25,04,17,9.40
2007,05,25,04,18,9.40
2007,05,25,04,19,9.40
2007,05,25,04,20,9.40
2007,05,25,04,21,9.40
2007,05,25,04,22,9.40
2007,05,25,04,23,9.30
2007,05,25,04,24,9.40
2007,05,25,04,25,9.30
2007,05,25,04,26,9.30
2007,05,25,04,27,9.30
2007,05,25,04,28,9.30
2007,05,25,04,29,9.30
2007,05,25,04,30,9.30
2007,05,25,04,31,9.30
2007,05,25,04,32,9.30
2007,05,25,04,33,9.30
2007,05,25,04,34,9.30
2007,05,25,04,35,9.30
2007,05,25,04,36,9.30
2007,05,25,04,37,9.30
2007,05,25,04,38,9.30
2007,05,25,04,39,9.20
2007,05,25,04,40,9.20
2007,05,25,04,41,9.20
2007,05,25,04,42,9.20
2007,05,25,04,43,9.20
2007,05,25,04,44,9.20
2007,05,25,04,45,9.20
2007,05,25,04,46,9.20
2007,05,25,04,47,9.20
2007,05,25,04,48,9.20
2007,05,25,04,49,9.20
2007,05,25,04,50,9.20
2007,05,25,04,51,9.20
2007,05,25,04,52,9.20
2007,05,25,04,53,9.20
2007,05,25,04,54,9.20
2007,05,25,04,55,9.20
2007,05,25,04,56,9.20
2007,05,25,04,57,9.20
2007,05,25,04,58,9.20
2007,05,25,04,59,9.10
2007,05,25,05,00,9.10
2007,05,25,05,01,9.10
2007,05,25,05,02,9.10
2007,05,25,05,03,9.10
2007,05,25,05,04,9.00
2007,05,25,05,05,9.00
2007,05,25,05,06,9.00
2007,05,25,05,07,9.00
2007,05,25,05,08,8.90
2007,05,25,05,09,8.90
2007,05,25,05,10,8.90
2007,05,25,05,11,8.90
2007,05,25,05,12,8.90
2007,05,25,05,13,8.80
2007,05,25,05,14,8.80
2007,05,25,05,15,8.80
2007,05,25,05,16,8.80
2007,05,25,05,17,8.80
2007,05,25,05,18,8.80
2007,05,25,05,19,8.80
2007,05,25,05,20,8.80
2007,05,25,05,21,8.80
2007,05,25,05,22,8.80
2007,05,25,05,23,8.80
2007,05,25,05,24,8.70
2007,05,25,05,25,8.70
2007,05,25,05,26,8.70
2007,05,25,05,27,8.70
2007,05,25,05,28,8.70
2007,05,25,05,29,8.70
2007,05,25,05,30,8.70
2007,05,25,05,31,8.70
2007,05,25,05,32,8.70
2007,05,25,05,33,8.70
2007,05,25,05,34,8.70
2007,05,25,05,35,8.70
2007,05,25,05,36,8.70
2007,05,25,05,37,8.70
2007,05,25,05,38,8.70
2007,05,25,05,39,8.70
2007,05,25,05,40,8.70
2007,05,25,05,41,8.70
2007,05,25,05,42,8.70
2007,05,25,05,43,8.70
2007,05,25,05,44,8.70
2007,05,25,05,45,8.60
2007,05,25,05,46,8.70
2007,05,25,05,47,8.70
2007,05,25,05,48,8.70
2007,05,25,05,49,8.70
2007,05,25,05,50,8.70
2007,05,25,05,51,8.70
2007,05,25,05,52,8.70
2007,05,25,05,53,8.70
2007,05,25,05,54,8.70
2007,05,25,05,55,8.70
2007,05,25,05,56,8.70
2007,05,25,05,57,8.70
2007,05,25,05,58,8.70
2007,05,25,05,59,8.70
2007,05,25,06,00,8.70
2007,05,25,06,01,8.70
2007,05,25,06,02,8.80
2007,05,25,06,03,8.80
2007,05,25,06,04,8.80
2007,05,25,06,05,8.80
2007,05,25,06,06,8.80
2007,05,25,06,07,8.80
2007,05,25,06,08,8.80
2007,05,25,06,09,8.80
2007,05,25,06,10,8.80
2007,05,25,06,11,8.80
2007,05,25,06,12,8.80
2007,05,25,06,13,8.80
2007,05,25,06,14,8.80
2007,05,25,06,15,8.80
2007,05,25,06,16,8.80
2007,05,25,06,17,8.80
2007,05,25,06,18,8.90
2007,05,25,06,19,8.90
2007,05,25,06,20,8.90
2007,05,25,06,21,8.90
2007,05,25,06,22,8.90
2007,05,25,06,23,9.00
2007,05,25,06,24,9.00
2007,05,25,06,25,9.10
2007,05,25,06,26,9.10
2007,05,25,06,27,9.20
2007,05,25,06,28,9.20
2007,05,25,06,29,9.20
2007,05,25,06,30,9.20
2007,05,25,06,31,9.20
2007,05,25,06,32,9.20
2007,05,25,06,33,9.20
2007,05,25,06,34,9.30
2007,05,25,06,35,9.30
2007,05,25,06,36,9.30
2007,05,25,06,37,9.30
2007,05,25,06,38,9.30
2007,05,25,06,39,9.30
2007,05,25,06,40,9.30
2007,05,25,06,41,9.30
2007,05,25,06,42,9.40
2007,05,25,06,43,9.40
2007,05,25,06,44,9.30
2007,05,25,06,45,9.40
2007,05,25,06,46,9.30
2007,05,25,06,47,9.40
2007,05,25,06,48,9.40
2007,05,25,06,49,9.40
2007,05,25,06,50,9.40
2007,05,25,06,51,9.40
2007,05,25,06,52,9.40
2007,05,25,06,53,9.40
2007,05,25,06,54,9.40
2007,05,25,06,55,9.40
2007,05,25,06,56,9.50
2007,05,25,06,57,9.50
2007,05,25,06,58,9.60
2007,05,25,06,59,9.60
2007,05,25,07,00,9.60
2007,05,25,07,01,9.60
2007,05,25,07,02,9.70
2007,05,25,07,03,9.70
2007,05,25,07,04,9.70
2007,05,25,07,05,9.80
2007,05,25,07,06,9.80
2007,05,25,07,07,9.80
2007,05,25,07,08,9.80
2007,05,25,07,09,9.90
2007,05,25,07,10,9.90
2007,05,25,07,11,10.00
2007,05,25,07,12,10.10
2007,05,25,07,13,10.10
2007,05,25,07,14,10.20
2007,05,25,07,15,10.20
2007,05,25,07,16,10.30
2007,05,25,07,17,10.30
2007,05,25,07,18,10.30
2007,05,25,07,19,10.30
2007,05,25,07,20,10.30
2007,05,25,07,21,10.30
2007,05,25,07,22,10.40
2007,05,25,07,23,10.40
2007,05,25,07,24,10.50
2007,05,25,07,25,10.50
2007,05,25,07,26,10.70
2007,05,25,07,27,10.80
2007,05,25,07,28,10.90
2007,05,25,07,29,10.90
2007,05,25,07,30,11.00
2007,05,25,07,31,11.00
2007,05,25,07,32,11.00
2007,05,25,07,33,11.00
2007,05,25,07,34,11.10
2007,05,25,07,35,11.10
2007,05,25,07,36,11.20
2007,05,25,07,37,11.20
2007,05,25,07,38,11.20
2007,05,25,07,39,11.20
2007,05,25,07,40,11.20
2007,05,25,07,41,11.20
2007,05,25,07,42,11.20
2007,05,25,07,43,11.30
2007,05,25,07,44,11.30
2007,05,25,07,45,11.30
2007,05,25,07,46,11.30
2007,05,25,07,47,11.30
2007,05,25,07,48,11.30
2007,05,25,07,49,11.30
2007,05,25,07,50,11.40
2007,05,25,07,51,11.50
2007,05,25,07,52,11.50
2007,05,25,07,53,11.60
2007,05,25,07,54,11.70
2007,05,25,07,55,11.80
2007,05,25,07,56,12.00
2007,05,25,07,57,12.10
2007,05,25,07,58,12.20
2007,05,25,07,59,12.30
2007,05,25,08,00,12.40
2007,05,25,08,01,12.50
2007,05,25,08,02,12.50
2007,05,25,08,03,12.50
2007,05,25,08,04,12.50
2007,05,25,08,05,12.60
2007,05,25,08,06,12.60
2007,05,25,08,07,12.60
2007,05,25,08,08,12.60
2007,05,25,08,09,12.60
2007,05,25,08,10,12.50
2007,05,25,08,11,12.60
2007,05,25,08,12,12.60
2007,05,25,08,13,12.60
2007,05,25,08,14,12.50
2007,05,25,08,15,12.40
2007,05,25,08,16,12.40
2007,05,25,08,17,12.40
2007,05,25,08,18,12.40
2007,05,25,08,19,12.40
2007,05,25,08,20,12.40
2007,05,25,08,21,12.40
2007,05,25,08,22,12.30
2007,05,25,08,23,12.40
2007,05,25,08,24,12.40
2007,05,25,08,25,12.40
2007,05,25,08,26,12.40
2007,05,25,08,27,12.40
2007,05,25,08,28,12.50
2007,05,25,08,29,12.50
2007,05,25,08,30,12.50
2007,05,25,08,31,12.60
2007,05,25,08,32,12.60
2007,05,25,08,33,12.60
2007,05,25,08,34,12.60
2007,05,25,08,35,12.60
2007,05,25,08,36,12.70
2007,05,25,08,37,12.70
2007,05,25,08,38,12.70
2007,05,25,08,39,12.80
2007,05,25,08,40,12.80
2007,05,25,08,41,12.80
2007,05,25,08,42,12.80
2007,05,25,08,43,12.80
2007,05,25,08,44,12.80
2007,05,25,08,45,12.80
2007,05,25,08,46,12.80
2007,05,25,08,47,12.70
2007,05,25,08,48,12.80
2007,05,25,08,49,12.80
2007,05,25,08,50,12.80
2007,05,25,08,51,12.90
2007,05,25,08,52,12.90
2007,05,25,08,53,13.00
2007,05,25,08,54,13.10
2007,05,25,08,55,13.10
2007,05,25,08,56,13.20
2007,05,25,08,57,13.20
2007,05,25,08,58,13.20
2007,05,25,08,59,13.20
2007,05,25,09,00,13.20
2007,05,25,09,01,13.20
2007,05,25,09,02,13.00
2007,05,25,09,03,13.00
2007,05,25,09,04,12.90
2007,05,25,09,05,12.80
2007,05,25,09,06,12.80
2007,05,25,09,07,12.70
2007,05,25,09,08,12.60
2007,05,25,09,09,12.60
2007,05,25,09,10,12.60
2007,05,25,09,11,12.70
2007,05,25,09,12,12.70
2007,05,25,09,13,12.70
2007,05,25,09,14,12.70
2007,05,25,09,15,12.70
2007,05,25,09,16,12.70
2007,05,25,09,17,12.70
2007,05,25,09,18,12.70
2007,05,25,09,19,12.80
2007,05,25,09,20,12.80
2007,05,25,09,21,12.80
2007,05,25,09,22,13.00
2007,05,25,09,23,13.00
2007,05,25,09,24,13.20
2007,05,25,09,25,13.30
2007,05,25,09,26,13.40
2007,05,25,09,27,13.50
2007,05,25,09,28,13.40
2007,05,25,09,29,13.40
2007,05,25,09,30,13.50
2007,05,25,09,31,13.50
2007,05,25,09,32,13.60
2007,05,25,09,33,13.70
2007,05,25,09,34,13.80
2007,05,25,09,35,13.80
2007,05,25,09,36,13.90
2007,05,25,09,37,14.00
2007,05,25,09,38,14.10
2007,05,25,09,39,14.30
2007,05,25,09,40,14.40
2007,05,25,09,41,14.50
2007,05,25,09,42,14.60
2007,05,25,09,43,14.80
2007,05,25,09,44,14.90
2007,05,25,09,45,15.00
2007,05,25,09,46,15.00
2007,05,25,09,47,15.00
2007,05,25,09,48,15.20
2007,05,25,09,49,15.20
2007,05,25,09,50,15.30
2007,05,25,09,51,15.40
2007,05,25,09,52,15.50
2007,05,25,09,53,15.60
2007,05,25,09,54,15.70
2007,05,25,09,55,15.70
2007,05,25,09,56,15.60
2007,05,25,09,57,15.50
2007,05,25,09,58,15.40
2007,05,25,09,59,15.50
2007,05,25,10,00,15.60
2007,05,25,10,01,15.70
2007,05,25,10,02,15.80
2007,05,25,10,03,15.90
2007,05,25,10,04,16.00
2007,05,25,10,05,16.00
2007,05,25,10,06,16.10
2007,05,25,10,07,16.10
2007,05,25,10,08,16.10
2007,05,25,10,09,16.00
2007,05,25,10,10,16.00
2007,05,25,10,11,15.90
2007,05,25,10,12,15.80
2007,05,25,10,13,15.80
2007,05,25,10,14,15.80
2007,05,25,10,15,15.90
2007,05,25,10,16,15.90
2007,05,25,10,17,15.90
2007,05,25,10,18,16.00
2007,05,25,10,19,16.00
2007,05,25,10,20,16.00
2007,05,25,10,21,15.90
2007,05,25,10,22,15.90
2007,05,25,10,23,15.80
2007,05,25,10,24,15.70
2007,05,25,10,25,15.70
2007,05,25,10,26,15.60
2007,05,25,10,27,15.50
2007,05,25,10,28,15.40
2007,05,25,10,29,15.20
2007,05,25,10,30,15.00
2007,05,25,10,31,15.00
2007,05,25,10,32,15.00
2007,05,25,10,33,15.00
2007,05,25,10,34,15.00
2007,05,25,10,35,15.00
2007,05,25,10,36,15.00
2007,05,25,10,37,15.10
2007,05,25,10,38,15.20
2007,05,25,10,39,15.30
2007,05,25,10,40,15.40
2007,05,25,10,41,15.50
2007,05,25,10,42,15.60
2007,05,25,10,43,15.70
2007,05,25,10,44,15.80
2007,05,25,10,45,15.80
2007,05,25,10,46,15.80
2007,05,25,10,47,15.90
2007,05,25,10,48,15.90
2007,05,25,10,49,15.90
2007,05,25,10,50,15.90
2007,05,25,10,51,16.00
2007,05,25,10,52,16.10
2007,05,25,10,53,16.10
2007,05,25,10,54,16.20
2007,05,25,10,55,16.30
2007,05,25,10,56,16.30
2007,05,25,10,57,16.30
2007,05,25,10,58,16.20
2007,05,25,10,59,16.00
2007,05,25,11,00,15.90
2007,05,25,11,01,15.80
2007,05,25,11,02,15.70
2007,05,25,11,03,15.70
2007,05,25,11,04,15.70
2007,05,25,11,05,15.80
2007,05,25,11,06,15.80
2007,05,25,11,07,15.90
2007,05,25,11,08,15.80
2007,05,25,11,09,15.80
2007,05,25,11,10,15.60
2007,05,25,11,11,15.50
2007,05,25,11,12,15.30
2007,05,25,11,13,15.30
2007,05,25,11,14,15.30
2007,05,25,11,15,15.20
2007,05,25,11,16,15.00
2007,05,25,11,17,15.00
2007,05,25,11,18,15.00
2007,05,25,11,19,14.90
2007,05,25,11,20,14.80
2007,05,25,11,21,14.80
2007,05,25,11,22,14.80
2007,05,25,11,23,14.80
2007,05,25,11,24,14.80
2007,05,25,11,25,14.90
2007,05,25,11,26,15.00
2007,05,25,11,27,15.00
2007,05,25,11,28,15.00
2007,05,25,11,29,15.00
2007,05,25,11,30,15.00
2007,05,25,11,31,15.00
2007,05,25,11,32,15.00
2007,05,25,11,33,15.10
2007,05,25,11,34,15.30
2007,05,25,11,35,15.30
2007,05,25,11,36,15.30
2007,05,25,11,37,15.30
2007,05,25,11,38,15.30
2007,05,25,11,39,15.30
2007,05,25,11,40,15.40
2007,05,25,11,41,15.40
2007,05,25,11,42,15.50
2007,05,25,11,43,15.70
2007,05,25,11,44,15.80
2007,05,25,11,45,15.90
2007,05,25,11,46,16.00
2007,05,25,11,47,16.10
2007,05,25,11,48,16.20
2007,05,25,11,49,16.30
2007,05,25,11,50,16.40
2007,05,25,11,51,16.50
2007,05,25,11,52,16.70
2007,05,25,11,53,16.70
2007,05,25,11,54,16.80
2007,05,25,11,55,16.90
2007,05,25,11,56,16.90
2007,05,25,11,57,17.00
2007,05,25,11,58,17.00
2007,05,25,11,59,17.00
2007,05,25,12,00,17.10
2007,05,25,12,01,17.20
2007,05,25,12,02,17.30
2007,05,25,12,03,17.40
2007,05,25,12,04,17.40
2007,05,25,12,05,17.30
2007,05,25,12,06,17.40
2007,05,25,12,07,17.40
2007,05,25,12,08,17.40
2007,05,25,12,09,17.40
2007,05,25,12,10,17.30
2007,05,25,12,11,17.20
2007,05,25,12,12,17.20
2007,05,25,12,13,17.20
2007,05,25,12,14,17.20
2007,05,25,12,15,17.10
2007,05,25,12,16,17.10
2007,05,25,12,17,17.10
2007,05,25,12,18,17.10
2007,05,25,12,19,17.00
2007,05,25,12,20,16.90
2007,05,25,12,21,16.80
2007,05,25,12,22,16.80
2007,05,25,12,23,16.80
2007,05,25,12,24,16.70
2007,05,25,12,25,16.70
2007,05,25,12,26,16.70
2007,05,25,12,27,16.70
2007,05,25,12,28,16.70
2007,05,25,12,29,16.60
2007,05,25,12,30,16.60
2007,05,25,12,31,16.60
2007,05,25,12,32,16.60
2007,05,25,12,33,16.80
2007,05,25,12,34,16.80
2007,05,25,12,35,16.80
2007,05,25,12,36,17.00
2007,05,25,12,37,17.00
2007,05,25,12,38,17.20
2007,05,25,12,39,17.20
2007,05,25,12,40,17.30
2007,05,25,12,41,17.30
2007,05,25,12,42,17.40
2007,05,25,12,43,17.40
2007,05,25,12,44,17.50
2007,05,25,12,45,17.60
2007,05,25,12,46,17.70
2007,05,25,12,47,17.80
2007,05,25,12,48,17.90
2007,05,25,12,49,17.90
2007,05,25,12,50,18.00
2007,05,25,12,51,18.10
2007,05,25,12,52,18.20
2007,05,25,12,53,18.20
2007,05,25,12,54,18.20
2007,05,25,12,55,18.20
2007,05,25,12,56,18.20
2007,05,25,12,57,18.30
2007,05,25,12,58,18.30
2007,05,25,12,59,18.40
2007,05,25,13,00,18.50
2007,05,25,13,01,18.60
2007,05,25,13,02,18.70
2007,05,25,13,03,18.90
2007,05,25,13,04,18.90
2007,05,25,13,05,18.90
2007,05,25,13,06,18.90
2007,05,25,13,07,18.80
2007,05,25,13,08,18.80
2007,05,25,13,09,18.70
2007,05,25,13,10,18.50
2007,05,25,13,11,18.40
2007,05,25,13,12,18.30
2007,05,25,13,13,18.30
2007,05,25,13,14,18.30
2007,05,25,13,15,18.40
2007,05,25,13,16,18.50
2007,05,25,13,17,18.50
2007,05,25,13,18,18.50
2007,05,25,13,19,18.30
2007,05,25,13,20,18.10
2007,05,25,13,21,17.90
2007,05,25,13,22,17.80
2007,05,25,13,23,17.70
2007,05,25,13,24,17.70
2007,05,25,13,25,17.80
2007,05,25,13,26,17.80
2007,05,25,13,27,17.80
2007,05,25,13,28,17.90
2007,05,25,13,29,17.90
2007,05,25,13,30,17.90
2007,05,25,13,31,17.90
2007,05,25,13,32,17.90
2007,05,25,13,33,17.80
2007,05,25,13,34,17.80
2007,05,25,13,35,17.70
2007,05,25,13,36,17.70
2007,05,25,13,37,17.70
2007,05,25,13,38,17.70
2007,05,25,13,39,17.80
2007,05,25,13,40,17.80
2007,05,25,13,41,17.80
2007,05,25,13,42,17.80
2007,05,25,13,43,17.80
2007,05,25,13,44,17.80
2007,05,25,13,45,17.80
2007,05,25,13,46,17.80
2007,05,25,13,47,17.80
2007,05,25,13,48,17.80
2007,05,25,13,49,17.90
2007,05,25,13,50,18.00
2007,05,25,13,51,18.10
2007,05,25,13,52,18.20
2007,05,25,13,53,18.20
2007,05,25,13,54,18.40
2007,05,25,13,55,18.40
2007,05,25,13,56,18.60
2007,05,25,13,57,18.70
2007,05,25,13,58,18.80
2007,05,25,13,59,18.90
2007,05,25,14,00,18.90
2007,05,25,14,01,19.00
2007,05,25,14,02,19.00
2007,05,25,14,03,19.00
2007,05,25,14,04,18.90
2007,05,25,14,05,18.90
2007,05,25,14,06,19.00
2007,05,25,14,07,19.10
2007,05,25,14,08,19.10
2007,05,25,14,09,19.20
2007,05,25,14,10,19.30
2007,05,25,14,11,19.30
2007,05,25,14,12,19.50
2007,05,25,14,13,19.60
2007,05,25,14,14,19.50
2007,05,25,14,15,19.40
2007,05,25,14,16,19.30
2007,05,25,14,17,19.20
2007,05,25,14,18,19.20
2007,05,25,14,19,19.30
2007,05,25,14,20,19.40
2007,05,25,14,21,19.50
2007,05,25,14,22,19.50
2007,05,25,14,23,19.40
2007,05,25,14,24,19.20
2007,05,25,14,25,19.20
2007,05,25,14,26,19.20
2007,05,25,14,27,19.10
2007,05,25,14,28,19.10
2007,05,25,14,29,19.00
2007,05,25,14,30,18.90
2007,05,25,14,31,18.90
2007,05,25,14,32,18.80
2007,05,25,14,33,18.70
2007,05,25,14,34,18.50
2007,05,25,14,35,18.40
2007,05,25,14,36,18.30
2007,05,25,14,37,18.30
2007,05,25,14,38,18.20
2007,05,25,14,39,18.10
2007,05,25,14,40,18.10
2007,05,25,14,41,17.70
2007,05,25,14,42,17.50
2007,05,25,14,43,17.30
2007,05,25,14,44,17.20
2007,05,25,14,45,17.20
2007,05,25,14,46,17.20
2007,05,25,14,47,17.10
2007,05,25,14,48,17.10
2007,05,25,14,49,17.00
2007,05,25,14,50,17.00
2007,05,25,14,51,17.00
2007,05,25,14,52,17.00
2007,05,25,14,53,17.10
2007,05,25,14,54,17.10
2007,05,25,14,55,17.10
2007,05,25,14,56,17.10
2007,05,25,14,57,17.10
2007,05,25,14,58,17.00
2007,05,25,14,59,17.00
2007,05,25,15,00,17.00
2007,05,25,15,01,16.90
2007,05,25,15,02,16.90
2007,05,25,15,03,16.90
2007,05,25,15,04,16.90
2007,05,25,15,05,16.80
2007,05,25,15,06,16.80
2007,05,25,15,07,16.80
2007,05,25,15,08,16.80
2007,05,25,15,09,16.80
2007,05,25,15,10,16.80
2007,05,25,15,11,16.80
2007,05,25,15,12,16.90
2007,05,25,15,13,17.00
2007,05,25,15,14,17.20
2007,05,25,15,15,17.20
2007,05,25,15,16,17.30
2007,05,25,15,17,17.20
2007,05,25,15,18,17.20
2007,05,25,15,19,17.10
2007,05,25,15,20,17.10
2007,05,25,15,21,17.10
2007,05,25,15,22,17.10
2007,05,25,15,23,17.10
2007,05,25,15,24,17.20
2007,05,25,15,25,17.20
2007,05,25,15,26,17.20
2007,05,25,15,27,17.20
2007,05,25,15,28,17.30
2007,05,25,15,29,17.20
2007,05,25,15,30,17.20
2007,05,25,15,31,17.10
2007,05,25,15,32,17.20
2007,05,25,15,33,17.20
2007,05,25,15,34,17.30
2007,05,25,15,35,17.20
2007,05,25,15,36,17.20
2007,05,25,15,37,17.20
2007,05,25,15,38,17.00
2007,05,25,15,39,16.90
2007,05,25,15,40,16.90
2007,05,25,15,41,16.80
2007,05,25,15,42,16.80
2007,05,25,15,43,16.80
2007,05,25,15,44,16.80
2007,05,25,15,45,16.70
2007,05,25,15,46,16.70
2007,05,25,15,47,16.80
2007,05,25,15,48,16.80
2007,05,25,15,49,16.80
2007,05,25,15,50,16.90
2007,05,25,15,51,17.00
2007,05,25,15,52,17.00
2007,05,25,15,53,17.10
2007,05,25,15,54,17.10
2007,05,25,15,55,17.20
2007,05,25,15,56,17.20
2007,05,25,15,57,17.30
2007,05,25,15,58,17.30
2007,05,25,15,59,17.30
2007,05,25,16,00,17.30
2007,05,25,16,01,17.30
2007,05,25,16,02,17.30
2007,05,25,16,03,17.30
2007,05,25,16,04,17.30
2007,05,25,16,05,17.30
2007,05,25,16,06,17.30
2007,05,25,16,07,17.40
2007,05,25,16,08,17.40
2007,05,25,16,09,17.50
2007,05,25,16,10,17.70
2007,05,25,16,11,17.80
2007,05,25,16,12,17.90
2007,05,25,16,13,18.00
2007,05,25,16,14,18.10
2007,05,25,16,15,18.30
2007,05,25,16,16,18.40
2007,05,25,16,17,18.50
2007,05,25,16,18,18.60
2007,05,25,16,19,18.70
2007,05,25,16,20,18.80
2007,05,25,16,21,18.80
2007,05,25,16,22,18.80
2007,05,25,16,23,18.80
2007,05,25,16,24,18.70
2007,05,25,16,25,18.60
2007,05,25,16,26,18.50
2007,05,25,16,27,18.50
2007,05,25,16,28,18.40
2007,05,25,16,29,18.40
2007,05,25,16,30,18.40
2007,05,25,16,31,18.40
2007,05,25,16,32,18.40
2007,05,25,16,33,18.40
2007,05,25,16,34,18.30
2007,05,25,16,35,18.30
2007,05,25,16,36,18.20
2007,05,25,16,37,18.20
2007,05,25,16,38,18.20
2007,05,25,16,39,18.20
2007,05,25,16,40,18.20
2007,05,25,16,41,18.20
2007,05,25,16,42,18.20
2007,05,25,16,43,18.20
2007,05,25,16,44,18.20
2007,05,25,16,45,18.20
2007,05,25,16,46,18.30
2007,05,25,16,47,18.30
2007,05,25,16,48,18.30
2007,05,25,16,49,18.30
2007,05,25,16,50,18.30
2007,05,25,16,51,18.40
2007,05,25,16,52,18.40
2007,05,25,16,53,18.50
2007,05,25,16,54,18.50
2007,05,25,16,55,18.60
2007,05,25,16,56,18.70
2007,05,25,16,57,18.70
2007,05,25,16,58,18.70
2007,05,25,16,59,18.70
2007,05,25,17,00,18.80
2007,05,25,17,01,18.80
2007,05,25,17,02,18.80
2007,05,25,17,03,18.90
2007,05,25,17,04,18.90
2007,05,25,17,05,18.90
2007,05,25,17,06,18.90
2007,05,25,17,07,18.80
2007,05,25,17,08,18.80
2007,05,25,17,09,18.80
2007,05,25,17,10,18.90
2007,05,25,17,11,18.90
2007,05,25,17,12,19.00
2007,05,25,17,13,19.00
2007,05,25,17,14,19.10
2007,05,25,17,15,19.20
2007,05,25,17,16,19.20
2007,05,25,17,17,19.20
2007,05,25,17,18,19.20
2007,05,25,17,19,19.20
2007,05,25,17,20,19.30
2007,05,25,17,21,19.30
2007,05,25,17,22,19.30
2007,05,25,17,23,19.30
2007,05,25,17,24,19.30
2007,05,25,17,25,19.30
2007,05,25,17,26,19.30
2007,05,25,17,27,19.30
2007,05,25,17,28,19.20